Startpagina
METAR-TAF:

METAR-TAF

Vliegvelden :

Reyes, Bolivia

breedte: 14-19S, lengte: 067-23W, hoogte: 140 m

Actueel weer

Dit bericht is 55 minuten geleden gemaakt, om 12:00 UTC
Weinig wind
Temperatuur 25°C
Vochtigheid 94%
Druk 1009 hPa
Zicht 10 km of meer
Weinig wolken op 1500 ft
Gebroken wolken op 20000 ft

METAR: SLRY 191200Z 00000KT 9999 FEW015 BKN200 25/24 Q1009

Tijdstip: 08:55 (12:55 UTC)


TAF: ontbreekt

Waarnemingen en weersverwachtingen van meer dan 4000 vliegvelden (METAR en TAF).

De beschikbare stations zijn de gele en rode punten op de kaart.

Ga met uw muis naar het station om de naam te zien.

Klik dan om waarnemingen en weersverwachtingen te zien.

kaart wijzigen: klik op de groene knoppen met een zwart kruis om in te zoomen, op de groene knop met een streepje om uit te zoomen of op de groene pijlen voor aangrenzende kaarten.


METAR-TAF: